Location: Ahstedt
(52.2048°N, 10.1060°E)
Time: 23:35:00
(UTC+00:00)

Cosmos 2218 Rocket - Pass Details

Date: 18 January 2026
Orbit: 956 x 1005 km, 82.9° (Epoch: 7 February)

Event Time Altitude Azimuth Distance (km) Brightness Sun altitude
Rises 06:01:45 0° 190° (S) 3,676 7.1 -11.4°
Reaches altitude 10° 06:04:14 10° 191° (S) 2,739 6.5 -11.0°
Maximum altitude 06:10:33 85° 280° (W) 1,006 4.0 -10.1°
Drops below altitude 10° 06:16:59 10° 10° (N) 2,786 6.3 -9.2°
Sets 06:19:32 0° 11° (N) 3,743 6.9 -8.9°
